Location: Dos Palmas
(32.4468°N, 116.8732°W)
Time: 20:22:23
(UTC+00:00)

N. Korean satellite - Pass Details

Date: 02 December 2022
Orbit: 407 x 442 km, 97.3° (Epoch: 05 February)

Event Time Altitude Azimuth Distance (km) Brightness Sun altitude
Rises 12:34:43 0° 21° (NNE) 2,508 10.3 -24.2°
Reaches altitude 10° 12:36:55 10° 30° (NNE) 1,622 9.4 -23.8°
Maximum altitude 12:40:08 35° 98° (E) 758 8.1 -23.1°
Drops below altitude 10° 12:43:18 10° 166° (SSE) 1,585 9.5 -22.5°
Sets 12:45:24 0° 175° (S) 2,442 10.4 -22.0°
